Location: Pouillon
(43.6048°N, 0.9995°W)
Time: 12:16:38
(UTC+00:00)

Daily predictions for brighter satellites

Satellite Brightness Start Highest point End
(mag) Time Altitude Azimuth Time Altitude Azimuth Time Altitude Azimuth
Cosmos 2333 4.3 19:07:10 10° S 19:12:36 56° ESE 19:18:04 10° NNE
Cosmos 372 Rocket 4.0 19:08:55 10° S 19:14:02 60° ESE 19:19:12 10° NNE
Tiangong -0.5 19:11:32 10° W 19:14:15 26° SSW 19:16:56 10° SE
Meteor 1-24 Rocket 3.9 19:09:47 10° N 19:15:07 52° ENE 19:20:36 10° SSE
Cosmos 1538 Rocket 4.2 19:10:09 10° NNW 19:15:11 52° ENE 19:20:13 10° SE
CENTAUR R/B 3.8 19:08:45 10° NW 19:17:13 67° WSW 19:26:37 10° SSE
Cosmos 1844 4.1 19:11:37 10° NNW 19:17:23 73° WSW 19:23:09 10° SSE
Cosmos 2219 Rocket 2.4 19:13:12 10° S 19:18:29 46° ESE 19:23:48 10° NE
SPOT 5 3.1 19:15:15 10° SE 19:19:52 48° ENE 19:24:16 10° N
Cosmos 2074 Rocket 4.0 19:15:55 10° S 19:21:59 61° E 19:28:08 10° NNE
CZ-4B R/B 4.3 19:18:59 10° SE 19:22:14 35° ENE 19:25:37 10° N
Cosmos 1937 Rocket 3.9 19:19:53 10° S 19:24:48 41° ESE 19:29:44 10° NE
Meteor 1-31 Rocket 3.2 19:21:39 10° SE 19:24:52 35° ENE 19:28:07 10° N
COSMOS 2428 3.8 19:31:52 10° SSE 19:36:02 21° E 19:40:14 10° NE
NOSS 2-2 (E) 4.4 19:32:44 10° NW 19:36:39 54° SW 19:42:05 10° SSE
USA 234 3.5 19:30:21 10° NE 19:36:53 74° NW 19:43:25 10° WSW
IRAS Rocket 4.2 19:32:43 10° SSE 19:38:11 71° ENE 19:43:40 10° NNW
Cosmos 1953 2.2 19:34:54 10° SSW 19:38:28 74° W 19:42:04 10° N
Meteor 1-15 Rocket 4.1 19:33:01 10° S 19:38:34 78° E 19:44:09 10° NNE
CZ-4B R/B 3.9 19:35:07 11° SE 19:39:50 36° ENE 19:44:53 10° N
CZ-4B DEB 4.5 19:35:08 10° SE 19:40:21 49° ENE 19:45:37 10° N
CSL-04 Rocket 3.7 19:35:07 10° SSE 19:40:36 74° ENE 19:46:10 10° N
Cosmos 2278 Rocket 4.0 19:40:59 10° N 19:44:32 17° NE 19:47:49 11° E
Cosmos 2333 Rocket 3.6 19:41:49 10° SW 19:47:10 42° WNW 19:52:32 10° NNE
NOSS 3-2 (C) 4.4 19:42:32 10° NNW 19:49:38 53° NE 19:56:23 17° ESE
Iridium 82 4.0 19:47:42 10° N 19:50:44 87° W 19:53:41 10° S
SJ-6B 4.4 19:48:42 10° SSW 19:52:02 33° W 19:55:23 10° NNW
Cosmos 1703 Rocket 3.6 19:51:03 10° N 19:55:18 55° E 19:58:41 15° SSE
BREEZE-M DEB (TANK) 3.4 19:53:26 10° WNW 19:55:41 29° N 19:59:16 10° ENE
Cosmos 1470 Rocket 3.6 19:51:31 10° S 19:55:54 84° W 20:00:18 10° N
Geosat 3.9 19:51:39 10° NNE 19:56:40 71° ESE 20:01:38 10° SSW
Lacrosse 5 rocket 0.6 19:54:08 10° SW 19:57:19 62° SE 20:00:29 10° NE
NOSS 3-2 (A) 4.3 19:50:37 10° NW 19:58:09 79° SW 20:06:45 11° SSE
ARIANE 6 FM1 Upper Stage 3.5 19:54:32 10° SW 19:58:36 52° NW 20:02:35 10° NNE
Meteor 2-5 Rocket 3.9 19:54:43 10° NNW 20:00:14 74° W 20:05:47 10° S
ERS-1 Rocket 3.1 19:57:46 15° SSE 20:01:43 57° ENE 20:06:37 10° N
Cosmos 1933 Rocket 3.7 19:59:11 10° SSE 20:03:22 50° E 20:07:38 10° NNE
Nadezhda 3 Rocket 4.0 19:59:29 10° N 20:05:41 86° W 20:11:49 10° S
Cosmos 1943 Rocket 3.3 20:05:44 10° N 20:10:35 28° NE 20:12:59 21° E
Meteor 1-12 Rocket 4.3 20:06:44 10° S 20:12:40 75° E 20:18:42 10° NNE
Helios 1A Rocket 3.0 20:09:41 10° N 20:12:52 56° WNW 20:16:00 10° SSW
In-Cosmos 22 Rocket 4.3 20:11:22 10° N 20:16:33 49° ENE 20:19:03 28° SE
OPS 6432 4.3 20:16:01 10° NNW 20:19:22 69° NE 20:20:04 50° ESE
Okean-O 3.3 20:20:35 32° E 20:21:36 36° ENE 20:25:37 10° N
Cosmos 494 Rocket 4.2 20:19:25 10° NNW 20:24:30 53° ENE 20:26:29 34° ESE
Cosmos 962 Rocket 4.4 20:18:58 10° S 20:25:11 72° E 20:31:23 10° NNE
Cosmos 2360 Rocket 4.0 20:21:01 10° WSW 20:26:04 34° NW 20:31:11 10° N
CBERS 1 LM4 rocket 4.3 20:24:04 20° S 20:27:18 82° WSW 20:32:02 10° NNW
Cosmos 1869 Rocket 3.4 20:30:47 24° S 20:33:19 76° E 20:37:43 10° NNE
Cosmos 2322 Rocket 4.3 20:29:27 10° WSW 20:34:11 27° NW 20:38:57 10° N
ADEOS 3.6 20:32:48 24° S 20:36:00 83° WSW 20:41:15 10° NNW
Terra 1.8 20:34:16 26° S 20:36:57 76° WSW 20:41:39 10° NNW
CZ-4 R/B 2.9 20:35:04 10° SSW 20:38:28 31° W 20:41:52 10° NNW
BREEZE-M DEB (TANK) 4.1 20:38:11 10° WSW 20:41:58 86° NNW 20:57:05 10° ENE
Okean O Rocket 1.5 20:43:57 56° SE 20:44:40 67° ENE 20:49:00 10° N
Cosmos 2237 Rocket 3.2 20:47:31 29° ENE 20:47:31 29° ENE 20:51:04 10° NE
Cosmos 2242 Rocket 4.3 20:42:26 10° N 20:46:21 37° ENE 20:46:21 37° ENE
Cosmos 1980 4.4 20:47:57 33° E 20:47:57 33° E 20:51:57 10° NE
SL-08 R/B 3.5 20:44:25 10° N 20:49:18 77° WNW 20:53:56 11° SSW
Cosmos 2322 3.7 20:44:12 10° SSW 20:49:54 87° WNW 20:55:40 10° NNE
CZ-4B R/B 4.0 20:51:35 27° NE 20:51:35 27° NE 20:53:44 10° N
ASTEX 1 3.7 20:50:47 44° E 20:50:53 44° ENE 20:55:32 10° N
Cosmos 2341 Rocket 3.9 20:46:43 15° S 20:51:57 87° E 20:58:17 10° N
IRS-1A Rocket 4.3 20:52:14 32° S 20:54:53 76° WSW 21:00:32 10° NNW
Cosmos 864 Rocket 4.4 20:51:54 18° S 20:56:41 89° E 21:02:58 10° N
Meteor 1-21 Rocket 4.1 20:53:54 10° N 20:59:32 83° E 21:01:09 49° SSE
BREEZE-M DEB (TANK) 4.5 20:58:12 10° W 20:59:23 17° WSW 20:59:23 17° WSW
Cosmos 1680 Rocket 3.9 20:55:41 10° NNW 21:00:48 59° WSW 21:02:37 37° SSW
SPOT 3 Rocket 3.8 21:02:11 49° E 21:02:29 50° ENE 21:07:30 10° N
Cosmos 2219 Rocket 4.2 20:57:49 10° WSW 21:02:35 29° NW 21:07:25 10° N
Meteor 2-14 Rocket 4.3 21:01:58 10° N 21:08:06 89° E 21:09:57 48° S
SL-24 R/B - RUBIN 2 4.0 21:11:36 10° NW 21:15:57 54° WSW 21:16:05 54° SW
USA 245 4.0 21:17:15 50° N 21:17:15 50° N 21:20:43 10° N
COSMOS 2428 3.2 21:14:08 10° SW 21:19:46 59° WNW 21:25:27 10° NNE
Cosmos 2369 Rocket 4.3 21:17:12 10° NNE 21:20:01 14° NE 21:20:57 13° NE
NOSS 0 Rocket 3.9 21:16:25 10° SSW 21:22:39 86° WNW 21:28:56 10° NNE
Ariane Rocket 3.1 21:26:52 60° NE 21:26:52 60° NE 21:31:21 10° N
Cosmos 1727 Rocket 3.9 21:21:36 10° N 21:27:58 73° E 21:28:33 68° ESE
Cosmos 2278 Rocket 2.0 21:23:45 10° NNW 21:29:28 86° ENE 21:29:39 84° ESE
USA 238 DEB 4.1 21:23:04 10° NNW 21:30:27 65° NE 21:32:16 52° ESE
USA 238 4.1 21:23:14 10° NNW 21:30:38 64° NE 21:32:26 52° E
Lacrosse 5 rocket 3.5 21:31:55 10° WNW 21:34:04 18° NNW 21:34:04 18° NNW
Spot 2 Rocket 4.4 21:33:59 37° SW 21:34:57 41° W 21:39:42 10° NNW
Cosmos 1378 Rocket 4.4 21:37:03 10° NNW 21:40:15 47° NNW 21:40:15 47° NNW
Meteor 2-8 Rocket 4.3 21:47:10 81° NE 21:47:10 81° NE 21:53:02 10° N
SL-16 R/B 4.3 21:58:05 14° NE 21:58:05 14° NE 21:59:02 10° NE
Cosmos 1943 Rocket 2.8 21:49:06 10° NW 21:54:29 49° WSW 21:54:29 49° WSW
Cosmos 1733 Rocket 4.5 21:55:14 35° WNW 21:55:14 35° WNW 21:58:46 10° N
Cosmos 614 Rocket 4.5 21:49:55 10° NNW 21:53:59 56° NNW 21:53:59 56° NNW
SeaSat 1 3.5 21:59:30 38° NNE 21:59:30 38° NNE 22:02:57 10° NNW
CZ-4B R/B 4.3 22:00:12 46° WNW 22:00:12 46° WNW 22:04:07 10° NNW
Cosmos 1934 Rocket 4.3 22:03:44 58° NE 22:03:44 58° NE 22:08:53 10° NNE
Meteor 2-16 Rocket 4.5 21:56:58 10° NNW 22:02:54 75° WNW 22:02:54 75° WNW
Cosmos 2123 Rocket 4.1 21:58:16 10° N 22:03:50 68° NNE 22:03:50 68° NNE
USA 59 Rocket 2.4 22:02:01 10° NNW 22:02:48 16° NNW 22:02:48 16° NNW
NOSS 3-4 (A) 3.7 22:10:29 55° NNW 22:10:29 55° NNW 22:15:45 10° NNE
NOSS 3-4 (C) 3.7 22:11:02 55° NNW 22:11:02 55° NNW 22:16:17 10° NNE
Okean O Rocket 4.3 22:21:11 12° W 22:21:17 12° W 22:22:54 10° WNW
Cosmos 2237 Rocket 3.3 22:29:12 38° WNW 22:29:57 40° WNW 22:35:19 10° NNE
Cosmos 2369 Rocket 3.5 22:59:28 10° NNW 23:02:43 36° NNW 23:02:43 36° NNW
SJ 16-02 4.4 23:32:57 10° N 23:33:16 11° NNE 23:33:16 11° NNE
SL-16 R/B 3.8 23:39:53 31° NNW 23:39:53 31° NNW 23:43:22 10° NNE
CZ-2C R/B 4.4 23:44:18 28° NNE 23:44:18 28° NNE 23:47:16 10° N
ACS3 Solar Sail 4.2 23:40:09 10° ENE 23:40:25 10° ENE 23:40:25 10° ENE
